Flag Weather past 2 weeks in Altdorf, Uri, Switzerland

Now
65 °F

Mild.


Feels Like: 65 °F
Forecast: 44 / 53 °F
Wind: 30 mph from Southeast

Location: Altdorf

Current Time: Nov 29, 2014 at 12:08:03 AM

Latest Report: Nov 28, 2014 at 11:00 PM


Visibility: N/A

Pressure: 29.72 "Hg

Humidity: 34%

Dew point: 36 °F

Location of AltdorfLocation

Historic Weather in Altdorf — Graph

°F

Altdorf temperature yesterday

Maximum temperature yesterday: 65 °F (at 9:00 PM)
Minimum temperature yesterday: 44 °F (at 8:00 AM)
Average temperature yesterday: 55 °F

Past Weeks' High & Low Weather Summary

 TemperatureHumidityPressure
High65 °F (Nov 28, 9:00 PM)100% (Nov 22, 5:00 AM)30.33 "Hg (Nov 22, 5:00 AM)
Low30 °F (Nov 20, 2:00 AM)32% (Nov 28, 4:00 PM)29.55 "Hg (Nov 15, 2:00 AM)
Average46 °F87%29.97 "Hg
* Reported Nov 13 10:00 PM — Nov 28 10:00 PM, Altdorf, Weather by CustomWeather, © 2014

Note: Actual official high and low records may vary slightly from our data, if they occured in-between our weather recording intervals... More about our weather records

Advertising

Altdorf weather history for previous 24 hours

 ConditionsComfort  
Time TempWeatherWind HumidityBarometerVisibility
10:00 PM
Nov 28
65 °FPassing clouds.25 mph35%29.71 "Hg14 mi
9:00 PM65 °FMild.32 mph34%29.69 "HgN/A
8:00 PM65 °FMild.29 mph33%29.68 "HgN/A
7:00 PM64 °FPassing clouds.26 mph35%29.67 "Hg14 mi
6:00 PM64 °FMild.32 mph35%29.65 "HgN/A
5:00 PM64 °FMild.32 mph33%29.63 "HgN/A
4:00 PM64 °FPartly sunny.36 mph32%29.64 "Hg16 mi
3:00 PM64 °FMild.28 mph34%29.64 "HgN/A
2:00 PM64 °FMild.31 mph33%29.63 "HgN/A
1:00 PM63 °FPartly sunny.25 mph36%29.63 "Hg16 mi
12:00 PM63 °FMild.22 mph38%29.65 "HgN/A
11:00 AM48 °FCool.7 mph82%29.73 "HgN/A
10:00 AM47 °FOvercast.8 mph87%29.75 "Hg12 mi
9:00 AM46 °FCool.8 mph89%29.75 "HgN/A
8:00 AM44 °FQuite cool.5 mph91%29.75 "HgN/A
7:00 AM45 °FClear.6 mph90%29.75 "Hg9 mi
6:00 AM45 °FCool.13 mph90%29.75 "HgN/A
5:00 AM45 °FCool.7 mph89%29.75 "HgN/A
4:00 AM45 °FOvercast.9 mph90%29.75 "Hg9 mi
3:00 AM46 °FCool.6 mph88%29.77 "HgN/A
2:00 AM46 °FCool.10 mph91%29.77 "HgN/A
1:00 AM46 °FOvercast.7 mph89%29.77 "Hg9 mi
12:00 AM46 °FCool.7 mph90%29.78 "HgN/A
Weather by CustomWeather, © 2014

See weather overviewHow to use our weather pages